Погода в Биробиджане

Погода в Биробиджане : погода сейчас, прогноз погоды и архив. Всё, что Вы хотите узнать о погоде в Биробиджане!

Хотите узнать прогноз погоды в Биробиджане? Тогда Вам сюда: Погода в Биробиджане

Поиск расширенной информации на нашем сайте:

Другие новости

Новости СМИ2

Главная страница сайта

Новости сайта

03.07.2017

Напоминаем, что на нашем специализированном сайте Метеоцентр.Азия вы можете получить высокодетализированные автоматические прогнозы погоды по пунктам России, СНГ и мира в авиационном формате (включающие направление и скорость ветра, видимость, явления погоды, количество и форму облачности, нижнюю и верхнюю границу облачности).


Погода в Биробиджане - сегодня

Время (UTC), дата Ветер
(°,м/с) 
Видим.   Явления Облачность Т
(°С)
Тd
(°С)
f(%) Тe
(°С)
Pmin
(гПа)
dP
(гПа)
Po
(мм)
O2
(г/м3)
Тmin Tmax R s Состояние
почвы
15 17.10.17 130 (ЮВ) 20000 м    ясно 
-3.3 -12.6 49 -4  1029  0.9  764  313           
18 17.10.17 310 (СЗ) 20000 м    ясно 
-4.4 -13.1 51 -4  1029.5  0.4  764  314           
21 17.10.17 тихо ()   20000 м    ясно 
-6.9 -11.8 68 -7  1029.3  -0.3  764  317  -8.4        замёрзшая 
00 18.10.17 290 (З) 20000 м    10/0 верхняя 
[Cs]
-1.1 -11.1 47 -1  1029.6  0.6  765  310           
03 18.10.17 210 (ЮЗ) 20000 м    9/0 средняя, верхняя 
[Ac lent|Cs]
+4 -15 24 +5  1028.4  -1  764  305           
06 18.10.17 330 (СЗ) 20000 м    6/0 средняя, верхняя 
[Ac lent|Cc]
+5.4 -13.8 24 +5  1026.6  -1.7  762  302           
09 18.10.17 110 (В) 20000 м    4/0 средняя, верхняя 
[Ac lent|Cc]
+0.2 -12.8 37 +1  1025.7  -1.1  762  308    +5.9       
12 18.10.17 тихо ()   20000 м    9/0 средняя, верхняя 
[Ac trans|Cs]
-2.8 -8.9 63 -3  1025.1  -0.6  761  311           
15 18.10.17 020 (С) 20000 м    10/0 средняя, верхняя 
[Ac As|Ci fib]
-1.7 -8.4 60 -1  1024.4  -0.6  761  309           
18 18.10.17 020 (С) 20000 м    10/0 средняя 
[Ac und]
-2.1 -8 64 -2  1023.3  -1.1  760  309           
21 18.10.17 050 (СВ) 20000 м    10/0 средняя 
[Ac und]
-2.1 -8.7 61 -3  1022.1  -1.1  759  309  -2.9        замёрзшая 
00 19.10.17 030 (СВ) 2000 м  мгла  1/0 верхняя 
[Cc]
+0.4 -9.3 48 1022.3  0.2  759  306           
03 19.10.17 080 (В) 2000 м  мгла  ясно 
+5.6 -10 31 +5  1020.9  -1.2  758  300           
06 19.10.17 070 (В) 2000 м  мгла  ясно 
+7 -10.4 28 +7  1019.8  -1  757  299           
09 19.10.17 060 (СВ) 2000 м  мгла  ясно 
-0.1 -8.9 51 +1  1020.8  0.7  758  306    +7.2       
12 19.10.17 340 (С) 2000 м  мгла  ясно 
-3.9 -5.3 90 -3  1021.9  0.9  759  311           
15 19.10.17 320 (СЗ) 2000 м  мгла  ясно 
-3.9 -7.8 74 -3  1022.8  0.9  759  311           
18 19.10.17 350 (С) 2000 м  мгла  ясно 
-5 -7.8 81 -5  1023.1  0.2  760  313           
21 19.10.17 360 (С) 2000 м  мгла  ясно 
-6.4 -8.5 85 -6  1023  0.1  759  314  -7        замёрзшая 
00 20.10.17 360 (С) 2000 м  мгла  ясно 
-0.8 -6.9 63 1022.9  0.1  760  308           
03 20.10.17 100 (В) 4000 м  мгла  ясно 
+5.1 -5.3 47 +5  1021.1  -1.6  758  301           
06 20.10.17 110 (В) 4000 м  мгла  ясно 
+7.7 -5.1 40 +8  1019  -2  757  297           
09 20.10.17 100 (В) 2000 м  мгла  ясно 
+2.8 -4.4 59 +4  1018.1  -1  756  302    +7.9       
12 20.10.17 030 (СВ) 2000 м  мгла  ясно 
+3.1 -3 64 +4  1017.2  -0.9  755  301           
15 20.10.17 340 (С) 2000 м  мгла  10/0 средняя 
[As trans]
+3.2 -3.2 63 +4  1015.1  -2.1  754  301           
Время (UTC), дата Ветер
(°,м/с) 
Видим.   Явления Облачность Т
(°С)
Тd
(°С)
f(%) Тe
(°С)
Pmin
(гПа)
dP
(гПа)
Po
(мм)
O2
(г/м3)
Тmin Tmax R s Состояние
почвы

Для получения пояснительной информации подведите курсор к названию столбца.

ПОГОДА в Биробиджане - архив

Всё, что Вы хотите узнать о погоде в Биробиджане - удобно и подробно!

Выберите нужную дату (начиная с 1 января 2015* года) и нажмите кнопку "Найти".
Будут отображены архивные сводки погоды по пункту Биробиджан, начиная с указанной даты.


Отображать данные в формате CSV (для использования в таблицах Excel)


Внимание! Наш архив погоды предназначен исключительно для личного некоммерческого использования в познавательных целях. Если Вам необходимы официальные справки о состоянии погоды (для производственных, юридических, коммерческих и т.п. целей), обращайтесь в органы Росгидромета.

*Примечание: данная дата относится к архиву по метеостанциям СССР (Россия, СНГ, Балтия).
Архив по метеостанциям Зарубежной Европы и Азии (кроме Китая) хранится 10 дней, по другим регионам земного шара (Китай, Африка, Америка, Австралия, Океания) - 1 день.

Биробиджан - район местоположения метеостанции


Название, широта, долгота, высота метеостанции:
Биробиджан 48.7°ш. 132.9°д. 80 м над ур. моря [Российская Федерация]

Дополнительная информация

В oтличие oт бoльшинства пoгoдных сайтoв мы публикуем пoдрoбную метеoинфoрмацию в детальнoм прoфессиoнальнoм фoрмате.

Характеристики температуры и влажнoсти вoздуха измеряются на высoте 2 м в тени вдали oт зданий и деревьев.
Скoрoсть ветра измеряется на высoте 10 м (на урoвне рoста челoвека скoрoсть ветра ниже в 1.5-2 раза). Если метеoстанция нахoдится в гoрoде или в лесу, тo скoрoсть ветра занижена на 2-4 м/с пo сравнению с oткрытым местoм. Скoрoсть ветра над акватoриями крупных рек и oзёр, а также на вершинах хoлмoв на 2-5 м/с выше, чем в oбычных услoвиях.
Атмoсфернoе давление в разных тoчках местнoсти мoжет значительнo oтличаться oт давления на метеoстанции, в зависимoсти oт услoвий рельефа (при пoдъёме на 10 м давление пoнижается примернo на 1 мм рт.ст.).